STARLINK-36333, 68256

Orbit data source: Space-Track

STARLINK-36333, 68256 is a payload satellite owned by SpaceX/Seattle (US) in LEO that was launched on Tue, 17 Mar 2026 UTC via an FALCON 9 launch vehicle from the Air Force Eastern Test Range (AFETR). Payload-class satellites include a variety of spacecraft equipped with specific instruments for various scientific and technological missions. These include communications satellites like Starlink; space stations such as the ISS; scientific satellites like the Hubble; Earth observation satellites from companies like Planet Labs, Umbra, and HawkEye 360; GPS; miniature CubeSats for education and research; and military/defense satellites.

Loading next visibility...
Identifier
68256, 2026-054AA
Orbit
LEO
Country
Flag of USUS
Related business
Manufacturer
SpaceX/Seattle
Mission
Operational spacecraft
Bus & Motor
STARLINK V2MO, Unknown motor
Mass
575 kg wet, ~530 kg dry
Launch date (UTC)
2026-03-17 (2 months ago)
Launch vehicle
FALCON 9
Launch site
Air Force Eastern Test Range (AFETR)
Object type
Payload
Rocket body
Debris
Shape & HBR
Unknown shape, 17.7 m
Radar Cross Section
RCS unknown

Expand to show TLE details & history
Last TLE update: 7 hours ago

TLE from 7 hours ago
0 STARLINK-36333
1 68256U 26054AA  26145.45211781  .00021372  00000-0  73106-3 0  9996
2 68256  53.1572 300.4056 0000525 120.8274 239.2779 15.30225639 10743
Epoch: 2026-05-25T10:51Z
TLE epoch observation values (Epoch: 2026-05-25T10:51:02.978Z)
Latitude
0.00001°
Longitude
-105.39651°
Altitude
476.222 km
Speed
7.629 km/s
True Right ascension
20h 01m 37s
True Declination
0° 00' 00"
Sunlit
Object was in full shadow at epoch
Visualization orbit readout
Latitude
Unknown
Longitude
Unknown
Altitude
Unknown
Speed
Unknown
Apparent Right ascension
Unknown
Apparent Declination
Unknown
Sunlit
N/A
Visualization observer readout
Local Sidereal Time
03:03:20
Azimuth
Unknown
Elevation
Unknown
Doppler factor
Unknown
Orbital elements
Apogee altitude
475.755 km
Perigee altitude
475.036 km
Semi-major axis
6,853.532 km
Eccentricity
0.00005
Inclination
53.1572°
RAAN
300.4056°
Arg. of periapsis
120.8274°
True anomaly
239.27273°
Mean anomaly
239.2779°
Eccentric anomaly
239.27531°
Mean motion
3.82535 °/min
Orbital period
94.11 mins
BSTAR
0.00073106
Loading maneuver chart data...
Computing Atmospheric mass density...
Loading historical data...
Loading historical data...
Loading historical data...
Loading historical data...
Loading historical data...
Loading historical data...
Loading historical data...

Documentation

Showing up to 5 results
|